| time (UTC) | temp F | wind direction | speed MPH | gust MPH | rain 1hr in | rain 24hr in | rain mn in | humidity % | barometer mb |
| 20260504234502 | 80 | 360 | 6.0 | 13.0 | 0.00 | 0.00 | 0.00 | 61 | 1001.6 |
| 20260504233105 | 80 | 360 | 5.0 | 14.0 | 0.00 | 0.00 | 0.00 | 60 | 1001.4 |
| 20260504231558 | 81 | 169 | 3.0 | 13.0 | 0.00 | 0.00 | 0.00 | 59 | 1001.7 |
| 20260504230057 | 81 | 360 | 4.0 | 14.0 | 0.00 | 0.00 | 0.00 | 58 | 1002.0 |
| 20260504224559 | 81 | 360 | 4.0 | 14.0 | 0.00 | 0.00 | 0.00 | 59 | 1001.9 |
| 20260504223056 | 81 | 360 | 6.0 | 14.0 | 0.00 | 0.00 | 0.00 | 58 | 1002.1 |
| 20260504221555 | 81 | 165 | 7.0 | 16.0 | 0.00 | 0.00 | 0.00 | 58 | 1002.2 |
| 20260504220110 | 81 | 179 | 5.0 | 12.0 | 0.00 | 0.00 | 0.00 | 58 | 1002.4 |
| 20260504214554 | 81 | 180 | 7.0 | 17.0 | 0.00 | 0.00 | 0.00 | 57 | 1002.4 |
| 20260504213053 | 82 | 175 | 5.0 | 14.0 | 0.00 | 0.00 | 0.00 | 57 | 1002.6 |
| 20260504211551 | 81 | 191 | 4.0 | 10.0 | 0.00 | 0.00 | 0.00 | 58 | 1003.0 |
| 20260504210045 | 82 | 171 | 5.0 | 10.0 | 0.00 | 0.00 | 0.00 | 55 | 1003.4 |
| 20260504204543 | 81 | 172 | 3.0 | 8.0 | 0.00 | 0.00 | 0.00 | 56 | 1003.7 |
| 20260504203042 | 80 | 167 | 4.0 | 12.0 | 0.00 | 0.00 | 0.00 | 56 | 1003.9 |
| 20260504201540 | 81 | 179 | 5.0 | 12.0 | 0.00 | 0.00 | 0.00 | 54 | 1004.0 |
| 20260504200048 | 82 | 360 | 5.0 | 14.0 | 0.00 | 0.00 | 0.00 | 54 | 1004.2 |
| 20260504194541 | 81 | 169 | 6.0 | 16.0 | 0.00 | 0.00 | 0.00 | 54 | 1004.5 |
| 20260504193034 | 81 | 160 | 5.0 | 15.0 | 0.00 | 0.00 | 0.00 | 54 | 1004.7 |
| 20260504191548 | 81 | 176 | 3.0 | 15.0 | 0.00 | 0.00 | 0.00 | 56 | 1004.9 |
| 20260504190032 | 81 | 160 | 7.0 | 11.0 | 0.00 | 0.00 | 0.00 | 53 | 1004.9 |
| 20260504184531 | 80 | 360 | 4.0 | 14.0 | 0.00 | 0.00 | 0.00 | 55 | 1005.3 |
| 20260504183038 | 79 | 360 | 4.0 | 17.0 | 0.00 | 0.00 | 0.00 | 57 | 1005.6 |
| 20260504181526 | 79 | 360 | 4.0 | 12.0 | 0.00 | 0.00 | 0.00 | 55 | 1005.9 |
| 20260504180023 | 79 | 180 | 5.0 | 13.0 | 0.00 | 0.00 | 0.00 | 54 | 1006.1 |
| 20260504174521 | 79 | 165 | 4.0 | 12.0 | 0.00 | 0.00 | 0.00 | 56 | 1006.2 |
| 20260504173016 | 77 | 176 | 4.0 | 11.0 | 0.00 | 0.00 | 0.00 | 56 | 1006.5 |
| 20260504171516 | 78 | 360 | 5.0 | 14.0 | 0.00 | 0.00 | 0.00 | 54 | 1006.5 |
| 20260504081553 | 63 | 360 | 3.0 | 6.0 | 0.00 | 0.00 | 0.00 | 60 | 1009.8 |
| 20260504044532 | 67 | 360 | 3.0 | 9.0 | 0.00 | 0.00 | 0.00 | 50 | 1011.8 |
| 20260504043026 | 68 | 360 | 4.0 | 9.0 | 0.00 | 0.00 | 0.00 | 50 | 1011.8 |
| 20260504041524 | 68 | 360 | 3.0 | 10.0 | 0.00 | 0.00 | 0.00 | 50 | 1012.1 |
| 20260504040023 | 68 | 360 | 2.0 | 8.0 | 0.00 | 0.00 | 0.00 | 50 | 1012.4 |
| 20260504034533 | 69 | 360 | 3.0 | 13.0 | 0.00 | 0.00 | 0.00 | 48 | 1012.4 |
| 20260504033022 | 69 | 360 | 3.0 | 11.0 | 0.00 | 0.00 | 0.00 | 47 | 1012.4 |
| 20260504031522 | 70 | 360 | 3.0 | 10.0 | 0.00 | 0.00 | 0.00 | 46 | 1012.3 |
| 20260504030037 | 71 | 360 | 4.0 | 10.0 | 0.00 | 0.00 | 0.00 | 45 | 1012.2 |
| 20260504024520 | 71 | 360 | 3.0 | 8.0 | 0.00 | 0.00 | 0.00 | 44 | 1012.2 |
| 20260504023020 | 71 | 360 | 3.0 | 9.0 | 0.00 | 0.00 | 0.00 | 44 | 1012.2 |
| 20260504021518 | 72 | 360 | 3.0 | 9.0 | 0.00 | 0.00 | 0.00 | 43 | 1011.9 |
| 20260504020018 | 73 | 360 | 3.0 | 9.0 | 0.00 | 0.00 | 0.00 | 42 | 1011.8 |
| 20260504014532 | 73 | 360 | 3.0 | 10.0 | 0.00 | 0.00 | 0.00 | 42 | 1011.8 |
| 20260504013017 | 74 | 360 | 3.0 | 8.0 | 0.00 | 0.00 | 0.00 | 40 | 1011.9 |
| 20260504011516 | 75 | 360 | 3.0 | 9.0 | 0.00 | 0.00 | 0.00 | 39 | 1011.8 |
| 20260504010020 | 76 | 360 | 4.0 | 8.0 | 0.00 | 0.00 | 0.00 | 37 | 1011.9 |
| 20260504004515 | 76 | 360 | 3.0 | 9.0 | 0.00 | 0.00 | 0.00 | 36 | 1012.1 |
| 20260504003025 | 77 | 360 | 2.0 | 8.0 | 0.00 | 0.00 | 0.00 | 35 | 1012.0 |
| 20260504001512 | 78 | 360 | 4.0 | 9.0 | 0.00 | 0.00 | 0.00 | 34 | 1012.1 |
| 20260504000011 | 78 | 360 | 3.0 | 11.0 | 0.00 | 0.00 | 0.00 | 33 | 1012.2 |